Regional Weather Roundup
Issued by NWS Sioux Falls, SD

Home | Current Version | Previous Version | Text Only | Print | Product List | Glossary Off
Versions: 1 2 3 4 5 6 7 8 9 10 11 12 13 14 15 16 17 18 19 20 21 22 23 24 25 26 27 28 29 30 31 32 33 34 35 36 37 38 39 40 41 42 43 44 45 46 47 48 49 50

000
ASUS43 KFSD 300710
RWRFSD

WEATHER ROUNDUP FOR SE SOUTH DAKOTA/SW MINNESOTA/NW IOWA
NATIONAL WEATHER SERVICE SIOUX FALLS SD
200 AM CDT WED JUL 30 2014

NOTE: "FAIR" INDICATES FEW OR NO CLOUDS BELOW 12,000 FEET WITH NO
SIGNIFICANT WEATHER AND OR OBSTRUCTIONS TO VISIBILITY.


SDZ038>040-050-052>070-300800-
SOUTHEAST SOUTH DAKOTA

CITY           SKY/WX    TMP DP  RH WIND       PRES   REMARKS
CHAMBERLAIN    PTCLDY    55  51  86 CALM      30.16S
HURON          CLEAR     54  52  93 CALM      30.15S
MADISON        FAIR      54  54 100 NW5       30.16S
MITCHELL       CLEAR     56  53  90 CALM      30.15S
SIOUX FALLS    CLEAR     55  53  93 CALM      30.15R
WINNER         FAIR      61  50  67 S6        30.17S
YANKTON        PTCLDY    61  55  82 CALM      30.15S
$$

MNZ071-072-080-081-089-090-097-098-300800-
SOUTHWEST MINNESOTA

CITY           SKY/WX    TMP DP  RH WIND       PRES   REMARKS
FAIRMONT       CLEAR     59  52  77 NW6       30.10F
JACKSON        CLEAR     55  52  88 W3        30.13S
LUVERNE        CLEAR     55  52  88 N3        30.15R
MARSHALL       CLEAR     55  50  82 W7        30.11S
MONTEVIDEO     CLEAR     59  54  82 NW6       30.12S
PIPESTONE      CLEAR     57  54  88 CALM      30.15S
REDWOOD FALLS  CLEAR     59  55  87 NW8       30.10S
TRACY          PTCLDY    60  53  78 W5        30.13S
WINDOM         CLEAR     55  54  94 CALM      30.12F
WORTHINGTON    CLEAR     54  50  87 W3        30.15S
$$

IAZ001>003-012>014-020>022-031-032-NEZ013-014-SDZ071-300800-
NORTHWEST IOWA

CITY           SKY/WX    TMP DP  RH WIND       PRES   REMARKS
CHEROKEE       PTCLDY    54  54 100 CALM      30.14S
DENISON        CLEAR     54  54 100 CALM      30.13S
ESTHERVILLE    CLEAR     55  53  93 W7        30.12S
LE MARS        CLEAR     54  52  94 CALM      30.15S
ORANGE CITY    CLEAR     57  52  82 CALM      30.15S
SHELDON        CLEAR     52  50  93 CALM      30.13S
SIOUX CITY     CLEAR     55  53  93 CALM      30.14S
SPENCER        CLEAR     53  52  96 NW3       30.13S
STORM LAKE     CLEAR     57  55  94 W8        30.15R
$$

ABBREVIATIONS USED IN REMARKS
   TC - TEMPERATURE IN CELSIUS
  WCI - WIND CHILL INDEX
   HX - HEAT INDEX
  VSB - VISIBILITY



USA.gov is the U.S. government's official web portal to all federal, state and local government web resources and services.